Date,Time,Wetness (Wet Dry or Ice),Wind Speed (m/s),Temperature (C),Humidity (%),Pressure (mb),Radiation (W/m^2)
2020-02-01,05:55:00,DRY,1.70,6.60,30.0,778.00,1.9
2020-02-01,06:00:00,DRY,3.33,6.93,29.0,778.00,1.4
2020-02-01,06:05:00,DRY,2.50,7.05,29.0,778.00,1.2
2020-02-01,06:10:00,DRY,4.53,7.23,26.7,778.00,1.2
2020-02-01,06:15:00,DRY,3.60,7.50,25.0,778.00,0.7
2020-02-01,06:20:00,DRY,4.10,7.57,26.0,778.00,1.2
2020-02-01,06:25:00,DRY,3.75,7.60,26.0,778.00,1.5
2020-02-01,06:30:00,DRY,4.03,7.77,25.0,778.00,1.7
2020-02-01,06:35:00,DRY,4.40,7.65,24.5,778.00,1.8
2020-02-01,06:40:00,DRY,5.07,7.87,24.0,778.00,1.4
2020-02-01,06:45:00,DRY,3.70,7.95,23.0,779.00,1.2
2020-02-01,06:50:00,DRY,3.73,7.93,23.0,779.00,0.8
2020-02-01,06:55:00,DRY,4.10,8.00,23.0,779.00,1.4
2020-02-01,07:00:00,DRY,3.13,7.97,22.3,778.67,1.4
2020-02-01,07:05:00,DRY,3.20,8.00,20.5,779.00,1.6
2020-02-01,07:10:00,DRY,2.93,8.13,22.0,779.00,1.6
2020-02-01,07:15:00,DRY,3.25,8.05,20.5,779.00,1.4
2020-02-01,07:20:00,DRY,2.37,8.27,19.7,779.00,1.0
2020-02-01,07:25:00,DRY,3.55,8.00,20.5,779.00,1.1
2020-02-01,07:30:00,DRY,2.80,7.90,19.7,779.00,3.3
2020-02-01,07:35:00,DRY,3.40,8.15,19.0,779.00,1.1
2020-02-01,07:40:00,DRY,3.23,8.13,17.7,779.00,1.7
2020-02-01,07:45:00,DRY,3.15,8.40,17.5,779.00,1.9
2020-02-01,07:50:00,DRY,3.13,8.40,18.0,779.00,3.2
2020-02-01,07:55:00,DRY,4.80,8.30,17.5,779.00,4.8
2020-02-01,08:00:00,DRY,3.07,8.27,19.0,779.00,6.7
2020-02-01,08:05:00,DRY,4.20,8.30,17.0,779.00,10.0
2020-02-01,08:10:00,DRY,4.57,8.63,15.3,779.00,12.6
2020-02-01,08:15:00,DRY,3.65,8.90,16.0,779.00,15.8
2020-02-01,08:20:00,DRY,3.83,8.83,16.0,779.00,18.2
2020-02-01,08:25:00,DRY,2.95,8.95,16.0,779.00,20.8
2020-02-01,08:30:00,DRY,3.67,9.03,15.7,779.00,23.4
2020-02-01,08:35:00,DRY,5.00,8.95,14.5,779.00,82.4
2020-02-01,08:40:00,DRY,3.30,9.53,14.7,779.00,154.2
2020-02-01,08:45:00,DRY,3.40,9.55,14.5,779.00,173.3
2020-02-01,08:50:00,DRY,3.60,9.27,15.7,779.00,192.7
2020-02-01,08:55:00,DRY,2.55,9.30,16.5,779.00,213.6
2020-02-01,09:00:00,DRY,1.47,9.37,17.3,779.33,233.1
2020-02-01,09:05:00,DRY,0.70,9.45,18.0,779.50,253.6
2020-02-01,09:10:00,DRY,0.80,9.10,18.0,780.00,272.9
2020-02-01,09:15:00,DRY,0.85,8.60,20.0,780.00,293.7
2020-02-01,09:20:00,DRY,0.67,8.97,20.3,779.33,312.8
2020-02-01,09:25:00,DRY,2.35,8.80,23.0,779.50,331.5
2020-02-01,09:30:00,DRY,2.17,8.63,24.3,779.33,351.5
2020-02-01,09:35:00,DRY,2.40,8.65,25.0,779.00,371.1
2020-02-01,09:40:00,DRY,3.90,8.60,24.3,779.00,389.8
2020-02-01,09:45:00,DRY,2.70,8.55,26.5,779.00,407.9
2020-02-01,09:50:00,DRY,3.13,8.73,26.7,779.33,427.0
2020-02-01,09:55:00,DRY,1.15,8.90,27.0,779.00,443.4
2020-02-01,10:00:00,DRY,2.77,9.00,26.0,779.67,461.1
2020-02-01,10:05:00,DRY,1.25,8.90,26.0,780.00,480.6
2020-02-01,10:10:00,DRY,1.70,9.20,26.5,780.00,500.9
2020-02-01,10:15:00,DRY,1.95,9.20,26.5,780.00,513.8
2020-02-01,10:20:00,DRY,1.33,9.33,27.3,780.00,535.0
2020-02-01,10:25:00,DRY,1.80,9.30,25.0,780.00,546.5
2020-02-01,10:30:00,DRY,3.87,9.07,26.7,780.00,565.1
2020-02-01,10:35:00,DRY,5.25,9.20,26.0,780.00,581.4
2020-02-01,10:40:00,DRY,5.27,8.97,27.7,780.00,593.3
2020-02-01,10:45:00,DRY,4.85,9.00,25.5,780.00,612.2
2020-02-01,10:50:00,DRY,4.67,9.07,27.7,780.00,626.2
2020-02-01,10:55:00,DRY,3.30,9.20,26.5,780.00,640.9
2020-02-01,11:00:00,DRY,4.83,8.93,26.7,780.00,657.4
2020-02-01,11:05:00,DRY,5.10,8.95,28.0,780.00,662.8
2020-02-01,11:10:00,DRY,2.30,9.23,27.7,780.00,680.9
2020-02-01,11:15:00,DRY,3.80,9.40,27.0,780.00,693.3
2020-02-01,11:20:00,DRY,3.50,9.17,28.0,780.00,707.0
2020-02-01,11:25:00,DRY,4.85,9.30,27.0,780.00,718.4
2020-02-01,11:30:00,DRY,4.77,9.50,28.0,780.00,729.4
2020-02-01,11:35:00,DRY,4.05,9.60,28.0,780.00,740.0
2020-02-01,11:40:00,DRY,3.77,9.73,28.0,780.00,750.0
2020-02-01,11:45:00,DRY,3.50,9.55,27.0,780.00,760.2
2020-02-01,11:50:00,DRY,3.03,9.67,29.3,780.00,769.9
2020-02-01,11:55:00,DRY,2.70,9.90,28.5,780.00,779.0
2020-02-01,12:00:00,DRY,2.10,9.93,30.0,780.00,787.0
2020-02-01,12:05:00,DRY,2.35,9.90,27.5,780.00,794.5
2020-02-01,12:10:00,DRY,2.13,9.87,30.0,780.00,801.9
2020-02-01,12:15:00,DRY,1.45,10.05,31.0,780.00,805.6
2020-02-01,12:20:00,DRY,1.63,10.30,28.7,780.00,813.0
2020-02-01,12:25:00,DRY,1.95,10.20,30.0,779.50,819.0
2020-02-01,12:30:00,DRY,3.23,10.40,28.3,779.33,827.4
2020-02-01,12:35:00,DRY,1.95,10.25,29.0,779.00,831.9
2020-02-01,12:40:00,DRY,2.80,10.17,27.7,779.00,836.4
2020-02-01,12:45:00,DRY,2.25,10.30,29.0,779.00,840.9
2020-02-01,12:50:00,DRY,2.33,10.00,29.3,779.00,842.2
2020-02-01,12:55:00,DRY,1.75,10.25,28.5,779.00,846.3
2020-02-01,13:00:00,DRY,1.77,10.13,29.0,779.00,847.8
2020-02-01,13:05:00,DRY,2.75,9.80,27.5,779.00,852.5
2020-02-01,13:10:00,DRY,1.87,10.17,29.0,779.00,855.8
2020-02-01,13:15:00,DRY,2.75,10.50,31.0,779.00,853.7
2020-02-01,13:20:00,DRY,1.43,10.57,30.3,779.00,853.0
2020-02-01,13:25:00,DRY,1.40,10.25,31.5,779.00,853.0
2020-02-01,13:30:00,DRY,0.70,10.50,33.0,779.00,852.4
2020-02-01,13:35:00,DRY,3.00,10.50,34.0,779.00,850.8
2020-02-01,13:40:00,DRY,0.73,10.23,31.3,779.00,849.9
2020-02-01,13:45:00,DRY,2.70,10.20,29.5,779.00,846.1
2020-02-01,13:50:00,DRY,1.97,10.27,31.3,779.00,845.7
2020-02-01,13:55:00,DRY,1.30,10.00,31.5,779.00,841.5
2020-02-01,14:00:00,DRY,1.13,10.53,30.7,779.00,839.2
2020-02-01,14:05:00,DRY,1.90,10.80,29.0,779.00,836.5
2020-02-01,14:10:00,DRY,1.20,10.37,30.0,779.00,831.2
2020-02-01,14:15:00,DRY,1.30,10.75,31.0,779.00,823.0
2020-02-01,14:20:00,DRY,1.70,10.77,29.3,779.00,820.0
2020-02-01,14:25:00,DRY,1.90,10.50,29.5,779.00,812.6
2020-02-01,14:30:00,DRY,1.87,10.53,30.7,778.33,805.8
2020-02-01,14:35:00,DRY,1.40,10.65,29.5,779.00,801.4
2020-02-01,14:40:00,DRY,0.93,10.57,29.3,778.67,792.6
2020-02-01,14:45:00,DRY,1.00,10.50,28.5,778.50,786.5
2020-02-01,14:50:00,DRY,1.37,10.70,30.7,779.00,776.2
2020-02-01,14:55:00,DRY,1.50,10.50,29.5,778.50,766.7
2020-02-01,15:00:00,DRY,1.10,10.03,31.7,778.00,757.3
2020-02-01,15:05:00,DRY,1.40,10.45,28.5,778.00,747.4
2020-02-01,15:10:00,DRY,1.03,10.80,30.7,778.00,737.8
2020-02-01,15:15:00,DRY,1.25,10.65,28.5,778.00,725.5
2020-02-01,15:20:00,DRY,2.07,10.20,30.3,778.00,715.4
2020-02-01,15:25:00,DRY,1.25,10.20,31.5,778.00,703.5
2020-02-01,15:30:00,DRY,2.23,9.80,32.7,778.00,691.2
2020-02-01,15:35:00,DRY,1.50,9.70,34.0,778.00,676.4
2020-02-01,15:40:00,DRY,0.83,10.20,32.3,778.00,664.1
2020-02-01,15:45:00,DRY,1.55,10.95,29.5,778.00,652.8
2020-02-01,15:50:00,DRY,1.37,10.20,30.0,778.00,638.3
2020-02-01,15:55:00,DRY,1.55,10.15,30.5,778.00,623.0
2020-02-01,16:00:00,DRY,2.70,10.03,30.0,778.00,609.5
2020-02-01,16:05:00,DRY,2.85,10.00,31.5,778.00,593.3
2020-02-01,16:10:00,DRY,2.13,9.83,32.7,778.00,579.6
2020-02-01,16:15:00,DRY,1.90,9.95,30.0,778.00,562.9
2020-02-01,16:20:00,DRY,2.73,9.73,32.3,778.00,546.3
2020-02-01,16:25:00,DRY,0.80,9.70,32.5,778.00,531.0
2020-02-01,16:30:00,DRY,1.13,9.60,33.3,778.00,514.2
2020-02-01,16:35:00,DRY,2.40,9.60,34.5,778.00,495.5
2020-02-01,16:40:00,DRY,2.43,9.47,33.7,778.00,477.9
2020-02-01,16:45:00,DRY,2.00,9.30,37.0,778.00,457.4
2020-02-01,16:50:00,DRY,1.20,9.13,36.0,778.00,441.0
2020-02-01,16:55:00,DRY,2.40,9.20,34.0,778.00,424.2
2020-02-01,17:00:00,DRY,2.70,9.37,32.0,778.00,404.9
2020-02-01,17:05:00,DRY,4.15,9.35,33.0,778.00,384.5
2020-02-01,17:10:00,DRY,4.20,9.50,32.3,778.00,365.8
2020-02-01,17:15:00,DRY,4.40,9.25,33.5,778.00,345.5
2020-02-01,17:20:00,DRY,4.83,9.40,30.7,778.00,326.6
2020-02-01,17:25:00,DRY,3.90,9.40,34.5,778.00,306.3
2020-02-01,17:30:00,DRY,4.10,9.00,35.3,778.00,286.6
2020-02-01,17:35:00,DRY,5.00,8.80,36.0,778.00,265.9
2020-02-01,17:40:00,DRY,4.83,8.87,32.0,778.00,246.4
2020-02-01,17:45:00,DRY,5.60,8.95,34.0,778.00,227.6
2020-02-01,17:50:00,DRY,3.27,9.03,32.3,778.00,208.1
2020-02-01,17:55:00,DRY,4.05,9.25,29.5,778.00,189.7
2020-02-01,18:00:00,DRY,4.27,8.90,33.7,778.00,170.6
2020-02-01,18:05:00,DRY,4.50,9.10,29.0,778.00,153.0
2020-02-01,18:10:00,DRY,4.80,9.03,29.3,778.00,131.1
2020-02-01,18:15:00,DRY,4.10,9.10,30.0,778.00,101.1
2020-02-01,18:20:00,DRY,3.57,9.33,25.7,778.00,81.6
2020-02-01,18:25:00,DRY,4.10,9.25,27.5,778.00,60.9
2020-02-01,18:30:00,DRY,4.37,9.13,27.0,778.00,43.4
2020-02-01,18:35:00,DRY,5.10,9.20,26.0,778.00,29.0
2020-02-01,18:40:00,DRY,4.30,9.30,25.0,778.00,19.1
2020-02-01,18:45:00,DRY,4.85,9.45,23.5,778.00,13.8
2020-02-01,18:50:00,DRY,4.03,9.53,23.0,778.00,9.2
2020-02-01,18:55:00,DRY,4.90,9.45,22.0,778.00,5.2
2020-02-01,19:00:00,DRY,3.83,9.47,22.0,778.00,3.0
2020-02-01,19:05:00,DRY,1.40,9.50,23.0,778.00,1.0
2020-02-01,19:10:00,DRY,2.53,9.53,22.3,778.00,1.3
2020-02-01,19:15:00,DRY,2.95,9.60,20.5,778.00,0.8
2020-02-01,19:20:00,DRY,3.40,9.50,22.0,778.00,1.2
2020-02-01,19:25:00,DRY,3.85,9.30,22.5,778.00,1.1
2020-02-01,19:30:00,DRY,3.97,9.20,22.7,778.00,1.2
2020-02-01,19:35:00,DRY,3.85,9.35,22.5,778.00,1.1
2020-02-01,19:40:00,DRY,4.27,9.43,21.0,778.00,1.3
2020-02-01,19:45:00,DRY,5.20,9.65,20.5,778.00,1.0
2020-02-01,19:50:00,DRY,4.17,9.47,20.7,778.00,0.7
2020-02-01,19:55:00,DRY,3.95,9.75,20.0,778.00,1.1
2020-02-01,20:00:00,DRY,4.43,9.60,20.0,778.00,0.8
2020-02-01,20:05:00,DRY,3.90,9.50,21.0,778.00,1.1
2020-02-01,20:10:00,DRY,4.37,9.83,19.3,778.00,2.7
2020-02-01,20:15:00,DRY,2.65,9.75,19.5,778.00,1.5
2020-02-01,20:20:00,DRY,3.73,10.07,18.3,778.00,0.6
2020-02-01,20:25:00,DRY,2.75,9.95,19.0,778.00,0.9
2020-02-01,20:30:00,DRY,2.00,9.80,19.0,778.00,0.9
2020-02-01,20:35:00,DRY,1.70,9.90,19.0,778.00,1.9
2020-02-01,20:40:00,DRY,2.90,10.17,17.0,778.33,1.3
2020-02-01,20:45:00,DRY,3.05,10.15,18.0,778.50,0.4
2020-02-01,20:50:00,DRY,3.03,10.00,18.0,778.67,1.3
2020-02-01,20:55:00,DRY,2.25,10.10,17.5,778.00,1.2
2020-02-01,21:00:00,DRY,3.57,9.70,20.0,778.00,1.3
2020-02-01,21:05:00,DRY,3.70,9.95,18.0,778.50,1.3
2020-02-01,21:10:00,DRY,3.10,9.80,18.0,779.00,1.3
2020-02-01,21:15:00,DRY,4.10,10.25,16.0,778.50,1.4
2020-02-01,21:20:00,DRY,3.83,9.80,19.0,779.00,1.1
2020-02-01,21:25:00,DRY,3.80,9.60,19.5,779.00,1.1
2020-02-01,21:30:00,DRY,3.07,10.00,17.7,779.00,1.4
2020-02-01,21:35:00,DRY,4.50,10.20,16.0,779.00,0.9
2020-02-01,21:40:00,DRY,3.55,10.15,17.5,779.00,0.8
2020-02-01,21:45:00,DRY,3.25,10.25,16.0,779.00,1.3
2020-02-01,21:50:00,DRY,4.87,10.20,17.0,779.00,1.5
2020-02-01,21:55:00,DRY,4.30,10.25,16.0,779.00,1.2
2020-02-01,22:00:00,DRY,4.50,10.57,15.3,779.00,1.2
2020-02-01,22:05:00,DRY,5.80,10.45,16.0,779.00,1.1
2020-02-01,22:10:00,DRY,3.97,10.53,15.0,779.00,1.1
2020-02-01,22:15:00,DRY,2.40,10.95,14.0,779.00,1.1
2020-02-01,22:20:00,DRY,4.63,11.03,13.7,779.00,1.4
2020-02-01,22:25:00,DRY,4.35,10.85,14.0,779.00,1.4
2020-02-01,22:30:00,DRY,4.83,11.10,13.0,779.00,1.3
2020-02-01,22:35:00,DRY,4.90,10.85,14.0,779.00,0.9
2020-02-01,22:40:00,DRY,3.57,11.03,13.0,779.00,1.1
2020-02-01,22:45:00,DRY,2.60,11.15,13.0,779.00,0.1
2020-02-01,22:50:00,DRY,2.67,11.07,12.7,779.00,0.4
2020-02-01,22:55:00,DRY,3.35,11.15,12.5,779.00,0.7
2020-02-01,23:00:00,DRY,2.80,11.17,12.7,779.00,0.9
2020-02-01,23:05:00,DRY,2.55,11.00,13.5,779.00,0.9
2020-02-01,23:10:00,DRY,2.70,11.07,12.3,779.00,1.6
2020-02-01,23:15:00,DRY,3.55,10.75,13.0,779.00,0.5
2020-02-01,23:20:00,DRY,4.00,10.90,12.7,779.00,1.1
2020-02-01,23:25:00,DRY,3.65,11.00,12.0,779.00,1.2
2020-02-01,23:30:00,DRY,4.93,11.13,11.7,779.00,1.2
2020-02-01,23:35:00,DRY,4.75,11.05,12.0,779.00,0.7
2020-02-01,23:40:00,DRY,5.63,11.07,11.0,779.00,1.1
2020-02-01,23:45:00,DRY,4.75,11.15,11.0,779.00,1.2
2020-02-01,23:50:00,DRY,4.20,11.33,10.3,779.00,1.4
2020-02-01,23:55:00,DRY,5.00,11.45,10.0,779.00,0.6
2020-02-02,00:00:00,DRY,4.57,11.37,10.0,778.67,1.2
2020-02-02,00:05:00,DRY,4.25,11.50,10.0,778.50,1.0
2020-02-02,00:10:00,DRY,4.23,11.50,10.0,778.33,1.2
2020-02-02,00:15:00,DRY,4.70,11.20,10.0,778.00,1.9
2020-02-02,00:20:00,DRY,3.93,11.63,9.3,778.00,1.0
2020-02-02,00:25:00,DRY,4.25,11.70,9.0,778.00,0.9
2020-02-02,00:30:00,DRY,4.17,11.57,9.0,778.00,0.9
2020-02-02,00:35:00,DRY,3.30,11.75,9.0,778.00,1.1
2020-02-02,00:40:00,DRY,5.10,10.90,10.0,778.00,1.1
2020-02-02,00:45:00,DRY,4.55,11.20,9.0,778.00,1.3
2020-02-02,00:50:00,DRY,4.23,10.93,10.0,778.00,1.2
2020-02-02,00:55:00,DRY,4.35,10.85,10.0,778.00,1.1
2020-02-02,01:00:00,DRY,4.43,11.40,9.3,778.00,1.0
2020-02-02,01:05:00,DRY,4.85,11.45,10.0,778.00,1.0
2020-02-02,01:10:00,DRY,4.13,11.40,9.3,778.00,1.1
2020-02-02,01:15:00,DRY,4.00,11.20,10.0,778.00,1.2
2020-02-02,01:20:00,DRY,3.77,11.13,10.0,778.00,0.6
2020-02-02,01:25:00,DRY,4.45,11.00,10.0,778.00,0.9
2020-02-02,01:30:00,DRY,4.80,11.07,9.3,778.00,1.6
2020-02-02,01:35:00,DRY,3.10,11.05,9.0,778.00,2.7
2020-02-02,01:40:00,DRY,3.40,11.23,8.0,778.00,1.2
2020-02-02,01:45:00,DRY,2.95,11.15,8.0,778.00,0.8
2020-02-02,01:50:00,DRY,3.63,11.17,7.0,778.00,1.7
2020-02-02,01:55:00,DRY,4.50,11.10,7.5,778.00,1.2
2020-02-02,02:00:00,DRY,4.13,11.30,7.3,778.00,1.0
2020-02-02,02:05:00,DRY,3.35,11.05,7.5,778.00,1.6
2020-02-02,02:10:00,DRY,3.30,11.03,8.0,778.00,0.9
2020-02-02,02:15:00,DRY,4.50,11.10,8.0,778.00,1.2
2020-02-02,02:20:00,DRY,3.10,11.00,8.0,778.00,0.9
2020-02-02,02:25:00,DRY,2.75,10.85,9.0,778.00,1.2
2020-02-02,02:30:00,DRY,2.67,10.93,9.0,778.00,0.9
2020-02-02,02:35:00,DRY,4.60,11.10,9.0,778.00,1.5
2020-02-02,02:40:00,DRY,3.40,11.10,8.0,778.00,0.9
2020-02-02,02:45:00,DRY,3.95,11.20,7.0,778.00,1.1
2020-02-02,02:50:00,DRY,3.63,11.17,7.0,778.00,0.9
2020-02-02,02:55:00,DRY,4.25,11.30,6.0,778.00,1.2
2020-02-02,03:00:00,DRY,3.30,11.30,6.3,778.00,1.6
2020-02-02,03:05:00,DRY,2.95,11.05,6.5,778.00,0.9
2020-02-02,03:10:00,DRY,4.60,11.50,6.0,778.00,1.1
2020-02-02,03:15:00,DRY,3.30,11.45,6.0,778.00,1.0
2020-02-02,03:20:00,DRY,3.60,11.17,7.0,778.00,1.2
2020-02-02,03:25:00,DRY,3.15,11.15,6.5,778.00,0.8
2020-02-02,03:30:00,DRY,3.20,11.50,7.0,777.67,1.0
2020-02-02,03:35:00,DRY,3.40,10.95,7.0,777.50,2.2
2020-02-02,03:40:00,DRY,2.97,11.30,7.0,778.00,1.7
2020-02-02,03:45:00,DRY,2.20,11.30,7.0,778.00,1.6
2020-02-02,03:50:00,DRY,2.70,11.17,7.0,778.00,1.0
2020-02-02,03:55:00,DRY,3.55,11.40,7.0,777.50,1.2
2020-02-02,04:00:00,DRY,1.77,11.63,7.0,777.00,1.3
2020-02-02,04:05:00,DRY,3.95,11.45,7.0,777.50,1.5
2020-02-02,04:10:00,DRY,2.73,11.70,7.3,777.00,1.0
2020-02-02,04:15:00,DRY,3.20,11.40,7.0,777.00,1.2
2020-02-02,04:20:00,DRY,3.37,11.50,7.3,777.00,1.1
2020-02-02,04:25:00,DRY,4.85,11.30,7.0,777.00,1.1
2020-02-02,04:30:00,DRY,4.43,10.97,7.3,777.00,1.1
2020-02-02,04:35:00,DRY,4.95,10.30,8.0,777.00,1.1
2020-02-02,04:40:00,DRY,4.93,10.43,8.3,777.00,1.2
2020-02-02,04:45:00,DRY,4.40,11.00,9.0,777.00,1.1
2020-02-02,04:50:00,DRY,3.83,11.47,8.3,777.00,1.8
2020-02-02,04:55:00,DRY,5.40,11.15,9.0,777.00,1.4
2020-02-02,05:00:00,DRY,4.83,11.03,9.0,777.00,0.9
2020-02-02,05:05:00,DRY,3.55,10.95,9.0,777.00,1.2
2020-02-02,05:10:00,DRY,4.00,11.30,8.3,777.00,1.3
2020-02-02,05:15:00,DRY,3.90,12.10,8.0,777.00,1.8
2020-02-02,05:20:00,DRY,3.63,12.17,8.0,777.00,1.3
2020-02-02,05:25:00,DRY,3.80,12.10,8.0,777.00,0.8
2020-02-02,05:30:00,DRY,3.67,11.47,8.3,777.00,1.5
2020-02-02,05:35:00,DRY,4.40,11.80,9.0,777.00,1.0
2020-02-02,05:40:00,DRY,3.83,11.87,8.3,777.00,1.1
2020-02-02,05:45:00,DRY,4.30,11.75,8.5,777.00,1.4
2020-02-02,05:50:00,DRY,4.03,11.97,8.3,777.00,1.2
2020-02-02,05:55:00,DRY,3.60,11.90,8.5,777.00,1.2
2020-02-02,06:00:00,DRY,3.27,12.03,8.0,777.00,1.6
2020-02-02,06:05:00,DRY,3.60,12.15,8.0,777.00,1.1
2020-02-02,06:10:00,DRY,2.93,11.93,8.7,777.00,0.3
2020-02-02,06:15:00,DRY,3.25,12.05,8.5,777.00,1.2
2020-02-02,06:20:00,DRY,2.17,12.23,8.0,777.00,1.2
2020-02-02,06:25:00,DRY,2.65,12.15,8.0,777.00,0.4
2020-02-02,06:30:00,DRY,2.30,11.87,8.3,777.00,1.9
2020-02-02,06:35:00,DRY,2.05,11.80,9.0,777.00,0.8
2020-02-02,06:40:00,DRY,2.03,11.90,8.0,777.00,0.5
2020-02-02,06:45:00,DRY,2.00,11.50,8.5,777.00,1.9
2020-02-02,06:50:00,DRY,2.83,11.53,8.3,777.00,0.8
2020-02-02,06:55:00,DRY,2.55,11.50,8.0,777.00,0.8
2020-02-02,07:00:00,DRY,2.40,11.33,8.3,777.00,1.4
2020-02-02,07:05:00,DRY,2.70,11.50,8.0,777.00,0.8
2020-02-02,07:10:00,DRY,2.67,11.40,8.0,777.00,1.1
2020-02-02,07:15:00,DRY,1.90,11.40,8.0,777.00,1.1
2020-02-02,07:20:00,DRY,3.10,11.33,8.0,777.00,2.2
2020-02-02,07:25:00,DRY,3.00,11.25,8.0,777.00,1.8
2020-02-02,07:30:00,DRY,2.80,11.10,8.0,777.00,1.7
2020-02-02,07:35:00,DRY,2.65,11.15,8.0,777.00,1.1
2020-02-02,07:40:00,DRY,3.30,11.03,8.0,777.67,1.4
2020-02-02,07:45:00,DRY,2.95,11.25,8.0,777.50,2.3
2020-02-02,07:50:00,DRY,2.80,11.10,7.0,777.00,2.7
2020-02-02,07:55:00,DRY,3.50,10.90,7.5,777.00,5.0
2020-02-02,08:00:00,DRY,1.90,10.67,7.0,778.00,7.6
2020-02-02,08:05:00,DRY,2.50,10.65,7.0,777.50,10.5
2020-02-02,08:10:00,DRY,2.83,10.50,6.7,777.67,13.2
2020-02-02,08:15:00,DRY,3.35,10.50,6.0,777.00,15.2
2020-02-02,08:20:00,DRY,3.30,10.37,6.0,777.67,17.5
2020-02-02,08:25:00,DRY,4.20,10.40,6.0,777.50,19.8
2020-02-02,08:30:00,DRY,3.93,10.50,5.0,778.00,21.8
2020-02-02,08:35:00,DRY,4.00,10.80,4.5,778.00,105.9
2020-02-02,08:40:00,DRY,3.37,11.07,4.0,778.00,161.5
2020-02-02,08:45:00,DRY,3.10,10.90,4.0,778.00,180.9
2020-02-02,08:50:00,DRY,3.13,11.07,3.7,778.00,201.5
2020-02-02,08:55:00,DRY,4.85,11.20,4.0,778.00,222.2
2020-02-02,09:00:00,DRY,5.23,11.43,4.0,778.00,241.7
2020-02-02,09:05:00,DRY,4.80,11.20,4.5,778.00,262.9
2020-02-02,09:10:00,DRY,3.70,11.07,4.7,777.67,282.5
2020-02-02,09:15:00,DRY,5.35,10.95,6.0,778.00,303.1
2020-02-02,09:20:00,DRY,5.30,10.80,4.7,777.67,322.9
2020-02-02,09:25:00,DRY,5.00,10.65,6.0,777.50,342.6
2020-02-02,09:30:00,DRY,5.17,10.50,6.7,777.67,362.5
2020-02-02,09:35:00,DRY,3.80,10.35,8.0,778.00,382.4
2020-02-02,09:40:00,DRY,5.40,10.20,6.7,777.33,401.3
2020-02-02,09:45:00,DRY,5.10,10.00,7.0,778.00,421.0
2020-02-02,09:50:00,DRY,6.53,9.80,8.3,778.00,438.8
2020-02-02,09:55:00,DRY,7.25,9.65,8.5,778.00,457.6
2020-02-02,10:00:00,DRY,6.23,9.63,9.3,778.00,475.7
2020-02-02,10:05:00,DRY,5.90,9.30,11.5,778.00,494.2
2020-02-02,10:10:00,DRY,4.83,9.20,12.0,778.00,510.5
2020-02-02,10:15:00,DRY,5.70,9.30,12.0,778.00,529.3
2020-02-02,10:20:00,DRY,4.17,9.20,13.7,778.00,545.8
2020-02-02,10:25:00,DRY,4.85,9.50,12.5,778.00,561.0
2020-02-02,10:30:00,DRY,5.17,9.80,10.7,778.00,578.9
2020-02-02,10:35:00,DRY,4.85,9.90,12.0,778.00,593.6
2020-02-02,10:40:00,DRY,6.23,10.07,11.3,778.00,609.5
2020-02-02,10:45:00,DRY,5.25,9.80,12.5,778.00,624.1
2020-02-02,10:50:00,DRY,4.10,9.67,13.3,778.00,639.5
2020-02-02,10:55:00,DRY,5.95,9.60,13.5,778.00,652.1
2020-02-02,11:00:00,DRY,4.60,9.87,13.0,778.00,666.9
2020-02-02,11:05:00,DRY,3.75,9.65,14.0,778.00,681.0
2020-02-02,11:10:00,DRY,4.47,9.67,13.7,778.00,692.7
2020-02-02,11:15:00,DRY,4.60,9.60,14.0,778.00,705.1
2020-02-02,11:20:00,DRY,5.23,9.67,14.0,778.00,716.7
2020-02-02,11:25:00,DRY,5.45,9.90,14.0,778.00,728.6
2020-02-02,11:30:00,DRY,5.17,9.97,14.3,778.00,739.8
2020-02-02,11:35:00,DRY,5.20,10.05,14.0,778.00,750.2
2020-02-02,11:40:00,DRY,4.97,10.03,14.0,778.00,760.4
2020-02-02,11:45:00,DRY,5.50,10.10,14.5,778.00,770.7
2020-02-02,11:50:00,DRY,4.93,10.33,14.7,778.00,779.9
2020-02-02,11:55:00,DRY,6.00,10.25,15.0,778.00,787.2
2020-02-02,12:00:00,DRY,6.67,10.00,15.7,778.00,795.6
2020-02-02,12:05:00,DRY,5.05,9.95,15.5,778.00,803.7
2020-02-02,12:10:00,DRY,4.97,10.30,15.3,778.00,810.8
2020-02-02,12:15:00,DRY,5.30,10.30,15.5,778.00,817.0
2020-02-02,12:20:00,DRY,5.87,10.27,16.0,778.00,824.6
2020-02-02,12:25:00,DRY,4.95,10.15,17.0,778.00,830.7
2020-02-02,12:30:00,DRY,5.53,10.23,16.7,778.00,834.5
2020-02-02,12:35:00,DRY,5.70,10.20,17.0,778.00,840.0
2020-02-02,12:40:00,DRY,4.53,10.13,18.0,778.00,844.3
2020-02-02,12:45:00,DRY,6.20,10.05,19.0,778.00,848.4
2020-02-02,12:50:00,DRY,4.70,10.25,20.0,778.00,852.9
2020-02-02,12:55:00,DRY,5.55,10.35,20.5,778.00,855.0
2020-02-02,13:00:00,DRY,5.07,10.27,21.3,778.00,857.0
2020-02-02,13:05:00,DRY,5.30,10.15,22.5,778.00,858.3
2020-02-02,13:10:00,DRY,4.33,10.03,23.0,778.00,860.5
2020-02-02,13:15:00,DRY,5.50,10.10,22.5,778.00,861.2
2020-02-02,13:20:00,DRY,3.43,10.03,22.3,778.00,863.2
2020-02-02,13:25:00,DRY,4.35,10.30,23.0,778.00,863.5
2020-02-02,13:30:00,DRY,4.90,10.00,23.0,778.00,866.2
2020-02-02,13:35:00,DRY,3.60,10.80,23.0,778.00,862.0
2020-02-02,13:40:00,DRY,3.53,10.57,23.0,778.00,859.4
2020-02-02,13:45:00,DRY,5.10,10.60,23.5,778.00,858.4
2020-02-02,13:50:00,DRY,5.40,10.33,24.3,777.00,857.6
2020-02-02,13:55:00,DRY,5.90,10.25,25.5,777.50,852.2
2020-02-02,14:00:00,DRY,5.60,10.10,25.3,777.00,848.8
2020-02-02,14:05:00,DRY,4.65,10.20,25.5,777.00,845.4
2020-02-02,14:10:00,DRY,4.17,10.27,24.7,777.00,840.8
2020-02-02,14:15:00,DRY,5.25,10.10,25.0,777.00,836.0
2020-02-02,14:20:00,DRY,4.53,9.97,25.7,777.00,829.8
2020-02-02,14:25:00,DRY,4.35,10.30,26.0,777.00,822.5
2020-02-02,14:30:00,DRY,3.83,10.33,25.3,777.00,817.2
2020-02-02,14:35:00,DRY,2.90,9.80,26.5,777.00,810.8
2020-02-02,14:40:00,DRY,3.73,10.03,25.7,777.00,803.5
2020-02-02,14:45:00,DRY,5.25,9.90,25.5,777.00,795.2
2020-02-02,14:50:00,DRY,5.77,9.83,26.3,777.00,785.6
2020-02-02,14:55:00,DRY,5.20,9.95,26.0,777.00,776.2
2020-02-02,15:00:00,DRY,4.33,9.67,26.7,777.00,766.7
2020-02-02,15:05:00,DRY,4.15,9.75,25.5,777.00,756.5
2020-02-02,15:10:00,DRY,4.03,9.90,25.0,777.00,746.8
2020-02-02,15:15:00,DRY,4.55,10.00,24.5,777.00,736.0
2020-02-02,15:20:00,DRY,5.17,9.73,24.0,777.00,724.1
2020-02-02,15:25:00,DRY,5.30,9.85,24.5,777.00,713.7
2020-02-02,15:30:00,DRY,4.67,9.77,23.7,777.00,700.0
2020-02-02,15:35:00,DRY,4.95,9.45,26.0,777.00,688.5
2020-02-02,15:40:00,DRY,4.33,9.63,24.7,777.00,674.5
2020-02-02,15:45:00,DRY,3.70,9.60,21.5,777.00,662.2
2020-02-02,15:50:00,DRY,4.43,9.57,23.3,777.00,646.5
2020-02-02,15:55:00,DRY,3.65,9.40,20.5,777.00,633.5
2020-02-02,16:00:00,DRY,4.83,9.80,20.3,777.00,617.8
2020-02-02,16:05:00,DRY,3.70,9.50,19.5,777.00,602.8
2020-02-02,16:10:00,DRY,5.77,9.70,17.0,777.00,587.1
2020-02-02,16:15:00,DRY,4.25,9.40,21.5,777.00,571.1
2020-02-02,16:20:00,DRY,4.37,9.50,21.3,777.00,556.0
2020-02-02,16:25:00,DRY,4.65,9.75,18.0,777.00,538.2
2020-02-02,16:30:00,DRY,5.43,9.30,23.0,777.00,520.9
2020-02-02,16:35:00,DRY,4.40,9.10,24.0,777.00,504.1
2020-02-02,16:40:00,DRY,3.90,9.37,22.7,777.00,486.5
2020-02-02,16:45:00,DRY,4.60,9.25,21.5,777.00,467.7
2020-02-02,16:50:00,DRY,4.63,9.23,22.3,777.00,449.4
2020-02-02,16:55:00,DRY,4.65,9.10,22.0,777.00,430.6
2020-02-02,17:00:00,DRY,4.23,9.27,20.0,777.00,411.7
2020-02-02,17:05:00,DRY,4.30,9.20,20.0,777.00,392.1
2020-02-02,17:10:00,DRY,5.20,9.17,22.0,777.00,372.4
2020-02-02,17:15:00,DRY,5.75,9.20,20.5,777.00,352.5
2020-02-02,17:20:00,DRY,4.40,9.00,22.0,777.00,332.4
2020-02-02,17:25:00,DRY,5.70,9.40,17.0,777.00,311.9
2020-02-02,17:30:00,DRY,4.60,9.33,17.7,777.00,292.3
2020-02-02,17:35:00,DRY,3.40,9.45,17.5,777.00,272.5
2020-02-02,17:40:00,DRY,4.50,9.20,18.7,777.00,252.0
2020-02-02,17:45:00,DRY,3.55,9.10,19.5,777.00,231.4
2020-02-02,17:50:00,DRY,5.13,9.53,14.0,777.00,212.1
2020-02-02,17:55:00,DRY,4.00,9.55,13.0,777.00,193.3
2020-02-02,18:00:00,DRY,6.97,9.60,12.3,777.00,174.2
2020-02-02,18:05:00,DRY,6.60,9.50,13.0,777.00,156.6
2020-02-02,18:10:00,DRY,6.00,9.20,17.0,777.00,135.6
2020-02-02,18:15:00,DRY,5.55,9.35,12.5,777.00,109.7
2020-02-02,18:20:00,DRY,5.57,9.33,10.7,777.00,86.1
2020-02-02,18:25:00,DRY,4.85,9.45,11.0,777.00,65.0
2020-02-02,18:30:00,DRY,4.33,9.37,11.7,777.00,46.5
2020-02-02,18:35:00,DRY,6.25,9.35,12.0,777.00,31.4
2020-02-02,18:40:00,DRY,4.73,9.23,11.7,777.00,19.9
2020-02-02,18:45:00,DRY,6.60,9.05,12.0,777.00,15.2
2020-02-02,18:50:00,DRY,6.27,8.90,11.7,777.00,10.6
2020-02-02,18:55:00,DRY,4.70,8.65,12.0,777.00,5.5
2020-02-02,19:00:00,DRY,5.20,8.53,12.3,777.00,3.0
2020-02-02,19:05:00,DRY,5.05,8.55,10.5,777.00,1.9
2020-02-02,19:10:00,DRY,5.90,8.67,9.7,777.00,1.3
2020-02-02,19:15:00,DRY,6.05,8.75,9.5,777.00,1.2
2020-02-02,19:20:00,DRY,4.63,8.90,9.0,777.33,1.3
2020-02-02,19:25:00,DRY,3.30,8.95,9.0,777.00,1.3
2020-02-02,19:30:00,DRY,5.37,8.97,9.0,777.33,1.1
2020-02-02,19:35:00,DRY,5.60,8.95,9.0,778.00,1.1
2020-02-02,19:40:00,DRY,4.57,8.83,9.7,778.00,1.4
2020-02-02,19:45:00,DRY,4.40,9.10,8.5,778.00,1.6
2020-02-02,19:50:00,DRY,7.47,8.90,9.0,778.00,1.2
2020-02-02,19:55:00,DRY,5.10,8.90,9.0,778.00,1.4
2020-02-02,20:00:00,DRY,7.07,9.03,9.0,778.00,1.7
2020-02-02,20:05:00,DRY,4.85,9.00,9.5,778.00,1.4
2020-02-02,20:10:00,DRY,4.17,8.80,10.0,778.00,1.7
2020-02-02,20:15:00,DRY,5.15,8.90,10.0,778.00,1.2
2020-02-02,20:20:00,DRY,5.90,8.80,10.3,778.00,1.4
2020-02-02,20:25:00,DRY,7.10,9.00,10.0,778.00,0.8
2020-02-02,20:30:00,DRY,4.20,8.97,9.7,778.00,1.6
2020-02-02,20:35:00,DRY,5.40,9.05,9.0,778.00,1.5